Overview Statistics Trail Chart Weather Telemetry Raw packets
 

This is the latest recevied weather packets stored in our database for station/object KC9DRE. If no packets are shown the sender has not sent any weather packets the latest 10 day(s).

<< 1 2 3 4 >>
Time Temp. Humidity Pressure Rain* Wind** Luminosity Snow
1777897960 12.22° C 90% 1010.6 hPa 0 mm - 101 W/m² -
1777897656 12.22° C 90% 1011 hPa 0 mm - 75 W/m² -
1777897352 12.22° C 90% 1011.2 hPa 0 mm - 42 W/m² -
1777897048 12.22° C 89% 1011.7 hPa 0 mm - 34 W/m² -
1777896745 12.22° C 89% 1012 hPa 0 mm - 9 W/m² -
1777896442 12.22° C 88% 1012 hPa 0 mm - 7 W/m² -
1777896140 12.22° C 88% 1012.1 hPa 0 mm - 6 W/m² -
1777895838 12.22° C 88% 1011.7 hPa 0 mm - 4 W/m² -
1777895535 12.22° C 88% 1011.3 hPa 0 mm - 4 W/m² -
1777895232 12.22° C 88% 1011.9 hPa 0 mm - 4 W/m² -
1777894930 12.22° C 89% 1012.5 hPa 0 mm - 3 W/m² -
1777894627 12.22° C 88% 1011.4 hPa 0 mm - 4 W/m² -
1777894324 12.22° C 87% 1011.7 hPa 0 mm - 3 W/m² -
1777894021 12.22° C 87% 1011.9 hPa 0 mm - 3 W/m² -
1777893717 12.22° C 86% 1012 hPa 0 mm - 1 W/m² -
1777893414 11.67° C 85% 1012.2 hPa 0 mm - 1 W/m² -
1777893110 11.11° C 85% 1012.2 hPa 0 mm - 0 W/m² -
1777892807 10.56° C 87% 1012.2 hPa 0 mm - 0 W/m² -
1777892503 10.56° C 89% 1012 hPa 0 mm - 0 W/m² -
1777892199 10.56° C 89% 1012 hPa 0 mm - 0 W/m² -
1777891896 10.56° C 88% 1011.3 hPa 0 mm - 0 W/m² -
1777891593 10.56° C 86% 1011.1 hPa 0 mm - 0 W/m² -
1777891289 11.11° C 84% 1011.6 hPa 0 mm - 0 W/m² -
1777890983 11.11° C 82% 1011.2 hPa 0 mm - 0 W/m² -
1777890678 11.67° C 80% 1011.3 hPa 0 mm - 0 W/m² -

* Rain latest hour (hover to see other rain measurements)
** Current wind speed in m/s (hover to see current wind gust speed)